Time,TemperatureF,DewpointF,PressureIn,WindDirection,WindDirectionDegrees,WindSpeedMPH,WindSpeedGustMPH,Humidity,HourlyPrecipIn,Conditions,Clouds,dailyrainin,SoftwareType,DateUTC
2014-03-16 02:22:00,33.0,31.0,-100.00,NNE,15,12.0,17.0,93,0.03,,,-99.99,,2014-03-16 07:22:00,
2014-03-16 03:22:00,32.0,31.0,-100.00,NNE,30,9.0,15.0,95,0.25,,,-99.99,,2014-03-16 08:22:00,
2014-03-16 03:53:00,31.0,30.0,-100.00,NNE,25,8.0,14.0,95,0.33,,,-99.99,,2014-03-16 08:53:00,
2014-03-16 04:01:00,31.0,30.0,-100.00,NNE,25,8.0,14.0,95,0.33,,,-99.99,,2014-03-16 09:01:00,
2014-03-16 05:23:00,29.0,28.0,-100.00,NE,35,7.0,16.0,96,0.06,,,-99.99,,2014-03-16 10:23:00,
2014-03-16 06:22:00,27.0,26.0,-100.00,NNE,30,7.0,19.0,96,0.00,,,-99.99,,2014-03-16 11:22:00,
2014-03-16 06:43:00,26.0,25.0,-100.00,ENE,70,9.0,24.0,96,0.00,,,-99.99,,2014-03-16 11:43:00,
2014-03-16 07:22:00,24.0,24.0,-100.00,NE,40,8.0,16.0,96,0.00,,,-99.99,,2014-03-16 12:22:00,
2014-03-16 07:42:00,25.0,24.0,-100.00,NE,35,7.0,12.0,95,0.00,,,-99.99,,2014-03-16 12:42:00,
2014-03-16 08:12:00,24.0,23.0,-100.00,NE,40,9.0,19.0,95,0.00,,,-99.99,,2014-03-16 13:12:00,
2014-03-16 08:42:00,25.0,23.0,-100.00,NNE,30,7.0,16.0,93,0.00,,,-99.99,,2014-03-16 13:42:00,
2014-03-16 09:42:00,28.0,24.0,-100.00,NNE,25,7.0,16.0,84,0.00,,,-99.99,,2014-03-16 14:42:00,
2014-03-16 10:53:00,29.0,20.0,-100.00,NNE,25,11.0,16.0,67,0.00,,,-99.99,,2014-03-16 15:53:00,
2014-03-16 11:13:00,28.0,18.0,-100.00,NE,35,12.0,22.0,66,0.00,,,-99.99,,2014-03-16 16:13:00,
2014-03-16 12:52:00,28.0,17.0,-100.00,NE,35,10.0,19.0,61,0.00,,,-99.99,,2014-03-16 17:52:00,
2014-03-16 13:02:00,28.0,17.0,-100.00,NE,35,10.0,19.0,61,0.00,,,-99.99,,2014-03-16 18:02:00,
2014-03-16 13:21:00,26.0,16.0,-100.00,North,5,12.0,20.0,65,0.00,,,-99.99,,2014-03-16 18:21:00,
2014-03-16 13:42:00,27.0,17.0,-100.00,NNE,20,11.0,17.0,64,0.00,,,-99.99,,2014-03-16 18:42:00,
2014-03-16 15:12:00,30.0,16.0,-100.00,NE,40,6.0,16.0,56,0.00,,,-99.99,,2014-03-16 20:12:00,
2014-03-16 15:42:00,30.0,15.0,-100.00,NNE,15,11.0,19.0,53,0.00,,,-99.99,,2014-03-16 20:42:00,
2014-03-16 17:12:00,33.0,14.0,-100.00,NE,55,5.0,17.0,45,0.00,,,-99.99,,2014-03-16 22:12:00,
2014-03-16 17:23:00,31.0,12.0,-100.00,NNE,20,7.0,12.0,45,0.00,,,-99.99,,2014-03-16 22:23:00,
2014-03-16 17:42:00,30.0,11.0,-100.00,NNE,20,7.0,13.0,44,0.00,,,-99.99,,2014-03-16 22:42:00,
2014-03-16 18:22:00,32.0,12.0,-100.00,NE,40,4.0,9.0,43,0.00,,,-99.99,,2014-03-16 23:22:00,
2014-03-16 19:22:00,27.0,9.0,-100.00,NNE,30,1.0,4.0,47,0.00,,,-99.99,,2014-03-17 00:22:00,
2014-03-16 20:11:00,25.0,10.0,-100.00,NNE,30,1.0,6.0,52,0.00,,,-99.99,,2014-03-17 01:11:00,
2014-03-16 20:42:00,23.0,11.0,-100.00,North,0,0.0,1.0,58,0.00,,,-99.99,,2014-03-17 01:42:00,
2014-03-16 21:11:00,22.0,11.0,-100.00,WSW,240,0.0,1.0,62,0.00,,,-99.99,,2014-03-17 02:11:00,
2014-03-16 21:52:00,19.0,11.0,-100.00,North,355,0.0,0.0,70,0.00,,,-99.99,,2014-03-17 02:52:00,